AAL1289 KDFW-KOKC

Flight info

Callsign AAL1289
Flight time N/A
Altitude 28000
Route BLECO8 ZEMMA TSDEL3
Aircraft B738/M-SDE2E3FGHIRWXY/LB1

Departure

Time N/A
Airport Dallas Fort Worth International Airport (KDFW)

Arrival

Time 2026-04-23 02:12
Airport OKC Will Rogers World Airport (KOKC)
Time Latitude Longitude Altitude Speed Heading
2026-04-23 01:48 35.57227 -97.57902 6131 ft 242 kts 347°
2026-04-23 01:48 35.59121 -97.58353 6028 ft 239 kts 342°
2026-04-23 01:48 35.60693 -97.59444 5912 ft 225 kts 306°
2026-04-23 01:49 35.61286 -97.61279 5681 ft 199 kts 265°
2026-04-23 01:49 35.61110 -97.62677 5520 ft 169 kts 248°
2026-04-23 01:49 35.60585 -97.63998 5316 ft 146 kts 227°
2026-04-23 01:49 35.59790 -97.64807 5165 ft 140 kts 206°
2026-04-23 01:50 35.58927 -97.65192 5021 ft 128 kts 190°
2026-04-23 01:50 35.58059 -97.65237 4893 ft 127 kts 174°
2026-04-23 01:50 35.57237 -97.64964 4801 ft 118 kts 160°
2026-04-23 01:50 35.56539 -97.64438 4715 ft 120 kts 145°
2026-04-23 01:51 35.55951 -97.63716 4640 ft 122 kts 140°
2026-04-23 01:51 35.55387 -97.63010 4539 ft 123 kts 140°
2026-04-23 01:51 35.54773 -97.62241 4417 ft 122 kts 140°
2026-04-23 01:51 35.54184 -97.61504 4322 ft 122 kts 140°
2026-04-23 01:52 35.53596 -97.60770 4179 ft 125 kts 140°
2026-04-23 01:52 35.53003 -97.60030 3755 ft 121 kts 140°
2026-04-23 01:52 35.52361 -97.59387 3540 ft 119 kts 156°
2026-04-23 01:52 35.51615 -97.59041 3565 ft 118 kts 170°
2026-04-23 01:53 35.50766 -97.58946 4054 ft 120 kts 179°
2026-04-23 01:53 35.50049 -97.58916 4721 ft 113 kts 181°
2026-04-23 01:53 35.49157 -97.58910 4879 ft 135 kts 181°
2026-04-23 01:53 35.48204 -97.58909 4965 ft 141 kts 181°
2026-04-23 01:54 35.47317 -97.58907 4956 ft 140 kts 181°
2026-04-23 01:54 35.46400 -97.58907 4781 ft 145 kts 181°
2026-04-23 01:54 35.45353 -97.58905 4362 ft 139 kts 181°
2026-04-23 01:54 35.44356 -97.58904 3973 ft 138 kts 181°
2026-04-23 01:55 35.43429 -97.58903 3609 ft 137 kts 180°
2026-04-23 01:55 35.42489 -97.58901 3238 ft 137 kts 180°
2026-04-23 01:55 35.41538 -97.58900 2860 ft 136 kts 180°
2026-04-23 01:55 35.40605 -97.58897 2489 ft 136 kts 179°
2026-04-23 01:56 35.39673 -97.58897 2134 ft 135 kts 179°
2026-04-23 01:56 35.38748 -97.58894 1842 ft 131 kts 178°
2026-04-23 01:56 35.37813 -97.58891 1690 ft 133 kts 178°
2026-04-23 01:56 35.36901 -97.58868 1699 ft 133 kts 170°
2026-04-23 01:57 35.35969 -97.58868 1698 ft 135 kts 190°
2026-04-23 01:57 35.35055 -97.59051 2054 ft 132 kts 185°
2026-04-23 01:57 35.34105 -97.59158 2438 ft 145 kts 183°
2026-04-23 01:57 35.33052 -97.59246 2917 ft 160 kts 182°
2026-04-23 01:58 35.31887 -97.59335 3165 ft 180 kts 182°
2026-04-23 01:58 35.30568 -97.59434 3302 ft 207 kts 183°
2026-04-23 01:58 35.29119 -97.59543 2871 ft 210 kts 182°
2026-04-23 01:58 35.27699 -97.59651 2747 ft 191 kts 182°
2026-04-23 01:59 35.26408 -97.59749 2526 ft 182 kts 182°
2026-04-23 01:59 35.25200 -97.59840 2368 ft 170 kts 181°
2026-04-23 01:59 35.24037 -97.59927 2121 ft 164 kts 181°
2026-04-23 01:59 35.22892 -97.60007 1902 ft 169 kts 178°
2026-04-23 02:00 35.21664 -97.59830 2213 ft 185 kts 169°
2026-04-23 02:00 35.20451 -97.59590 3429 ft 181 kts 171°
2026-04-23 02:00 35.19244 -97.59363 4306 ft 194 kts 171°
2026-04-23 02:00 35.17764 -97.59090 3972 ft 236 kts 171°
2026-04-23 02:01 35.16130 -97.58738 4365 ft 235 kts 165°
2026-04-23 02:01 35.14638 -97.57894 4904 ft 248 kts 146°
2026-04-23 02:01 35.13444 -97.56287 5022 ft 271 kts 121°
2026-04-23 02:01 35.12888 -97.54019 5011 ft 295 kts 97°
2026-04-23 02:02 35.13078 -97.51508 5001 ft 296 kts 78°
2026-04-23 02:02 35.13917 -97.49308 4983 ft 279 kts 54°
2026-04-23 02:02 35.15353 -97.47772 5010 ft 284 kts 31°
2026-04-23 02:02 35.17227 -97.46931 5011 ft 287 kts
2026-04-23 02:03 35.19221 -97.46968 5010 ft 288 kts 348°
2026-04-23 02:03 35.21162 -97.47514 5015 ft 288 kts 345°
2026-04-23 02:03 35.23107 -97.48077 5007 ft 288 kts 346°
2026-04-23 02:03 35.25058 -97.48626 5010 ft 290 kts 346°
2026-04-23 02:04 35.27019 -97.49176 5011 ft 288 kts 346°
2026-04-23 02:04 35.28973 -97.49724 4996 ft 289 kts 346°
2026-04-23 02:04 35.30918 -97.50269 5004 ft 288 kts 346°
2026-04-23 02:04 35.32863 -97.50814 5007 ft 289 kts 346°
2026-04-23 02:05 35.34816 -97.51361 5006 ft 289 kts 346°
2026-04-23 02:05 35.36756 -97.51905 5006 ft 288 kts 346°
2026-04-23 02:05 35.38708 -97.52451 5005 ft 290 kts 346°
2026-04-23 02:05 35.40491 -97.52951 5004 ft 289 kts 346°
2026-04-23 02:06 35.49509 -97.55486 5036 ft 290 kts 345°
2026-04-23 02:06 35.58675 -97.58165 4987 ft 287 kts 334°
2026-04-23 02:06 35.60765 -97.60297 4991 ft 281 kts 302°
2026-04-23 02:06 35.62025 -97.63719 4994 ft 272 kts 270°
2026-04-23 02:07 35.61686 -97.65915 4987 ft 258 kts 237°
2026-04-23 02:07 35.60502 -97.67390 4984 ft 242 kts 206°
2026-04-23 02:07 35.58884 -97.68081 4995 ft 240 kts 191°
2026-04-23 02:07 35.54875 -97.68574 4726 ft 232 kts 165°
2026-04-23 02:08 35.52183 -97.67019 4513 ft 217 kts 129°
2026-04-23 02:08 35.51590 -97.65379 4378 ft 203 kts 116°
2026-04-23 02:08 35.51006 -97.63953 4183 ft 181 kts 129°
2026-04-23 02:08 35.50213 -97.62776 3653 ft 181 kts 137°
2026-04-23 02:09 35.49345 -97.61658 3214 ft 174 kts 138°
2026-04-23 02:09 35.48560 -97.60664 2947 ft 146 kts 138°
2026-04-23 02:09 35.47895 -97.59906 2730 ft 116 kts 143°
2026-04-23 02:09 35.47272 -97.59345 2639 ft 116 kts 160°
2026-04-23 02:10 35.46471 -97.59186 2532 ft 119 kts 171°
2026-04-23 02:10 35.45666 -97.59033 2342 ft 116 kts 169°
2026-04-23 02:10 35.44864 -97.58948 2200 ft 119 kts 174°
2026-04-23 02:10 35.44040 -97.58919 2035 ft 119 kts 175°
2026-04-23 02:11 35.43220 -97.58905 1865 ft 118 kts 176°
2026-04-23 02:11 35.42400 -97.58901 1712 ft 118 kts 175°
2026-04-23 02:11 35.41566 -97.58896 1557 ft 121 kts 175°
2026-04-23 02:11 35.40734 -97.58895 1396 ft 118 kts 175°
2026-04-23 02:12 35.39954 -97.58880 1302 ft 89 kts 174°
2026-04-23 02:12 35.39694 -97.58880 1301 ft 0 kts 180°